Location: Givhans Ferry State Park
(33.0284°N, 80.3868°W)
Time: 07:13:06
(UTC-05:00)

Daily predictions for brighter satellites

Satellite Brightness Start Highest point End
(mag) Time Altitude Azimuth Time Altitude Azimuth Time Altitude Azimuth
COSMOS 2406 3.2 17:34:33 10° NNW 17:40:18 80° ENE 17:45:59 10° SSE
Cosmos 1862 Rocket 3.6 17:36:07 10° S 17:40:31 86° E 17:44:58 10° N
Cosmos 1814 Rocket 4.4 17:37:34 10° N 17:42:38 41° ENE 17:47:39 10° SE
SL-27 R/B 4.1 17:47:57 10° NE 17:49:39 13° ENE 17:51:21 10° E
CSL-04 Debris 4.1 17:44:45 10° SSE 17:50:10 77° ENE 17:55:35 10° N
Cosmos 1461 3.9 17:45:58 10° NW 17:50:36 59° WSW 17:55:15 10° SSE
Ariane Rocket 3.0 17:47:09 10° SSE 17:52:14 80° ENE 17:57:19 10° N
COSMOS 2455 3.8 17:50:48 10° SW 17:56:33 47° WNW 18:02:20 10° NNE
Cosmos 1816 Rocket 4.5 17:53:02 10° N 17:59:11 89° E 18:05:20 10° S
Okean 1-7 3.8 17:55:52 10° SSE 17:59:42 31° E 18:03:35 10° NNE
USA 234 3.3 17:53:36 10° NE 18:00:08 73° SE 18:06:39 10° SW
Cosmos 2297 4.2 17:54:56 10° S 18:00:11 39° ESE 18:05:28 10° NE
Meteor 1-26 Rocket 4.5 17:55:11 10° SSW 18:00:47 75° W 18:06:20 10° N
Cosmos 1833 Rocket 3.8 18:00:00 10° N 18:04:12 21° ENE 18:08:22 10° ESE
Cosmos 841 Rocket 3.8 18:00:25 10° N 18:05:27 44° ENE 18:10:26 10° SE
CZ-4 R/B 1.2 18:01:35 10° SSE 18:05:28 75° ENE 18:09:18 10° N
Cosmos 2278 Rocket 2.6 18:00:19 10° SSW 18:05:57 68° WNW 18:11:37 10° NNE
Cosmos 1633 3.5 18:03:33 10° NNE 18:06:42 26° E 18:09:50 10° SE
Cosmos 1486 Rocket 4.1 18:02:11 10° SSW 18:07:22 82° WNW 18:12:38 10° NNE
MTI 3.7 18:04:58 10° NNE 18:08:10 68° ESE 18:11:21 10° S
Atlas 2A Centaur Rocket 4.5 17:39:53 10° WSW 18:08:25 55° S 18:13:22 11° ESE
CORIOLIS 4.3 18:09:35 10° S 18:15:01 82° WSW 18:20:30 10° NNW
GPS 2-05 Rocket1 3.5 18:12:31 10° SW 18:15:30 37° SSE 18:17:13 21° E
Cosmos 1782 Rocket 4.0 18:12:30 10° NNE 18:16:31 36° E 18:20:31 10° SSE
YAOGAN 1 2.5 18:13:41 10° SSE 18:17:58 72° ENE 18:22:18 10° N
COSMO-SKYMED 1 2.5 18:17:06 10° NNE 18:21:27 77° ESE 18:25:46 10° S
OAO 3 Copernicus 4.3 18:17:06 10° W 18:22:11 71° N 18:25:29 22° E
SPOT 3 Rocket 3.8 18:17:38 10° SE 18:22:33 44° ENE 18:27:29 10° N
Cosmos 1484 Rocket 4.3 18:19:47 10° SSW 18:23:21 39° W 18:27:00 10° NNW
Cosmos 1354 Rocket 4.0 18:18:32 10° S 18:23:47 68° ESE 18:29:01 10° NNE
OAO 3 Rocket 4.0 18:19:40 10° SW 18:24:15 40° SSE 18:27:02 21° E
Cosmos 304 Rocket 3.8 18:20:11 10° NNW 18:24:59 86° WSW 18:29:46 10° SSE
Cosmos 1441 Rocket 4.1 18:22:18 10° SSE 18:25:42 28° E 18:26:30 26° ENE
Cosmos 1606 2.6 18:22:35 10° S 18:26:22 88° W 18:30:10 10° N
BREEZE-M DEB (TANK) 3.8 18:24:53 10° W 18:26:35 20° NNW 18:27:47 15° NNE
Cosmos 2034 Rocket 4.3 18:20:41 10° SSE 18:26:37 43° E 18:32:35 10° NNE
MONITOR-E 4.2 18:23:46 10° SSE 18:26:43 49° ENE 18:29:41 10° N
Cosmos 2221 Rocket 3.5 18:26:01 10° S 18:30:23 68° E 18:34:46 10° NNE
EO 1 Del DPAF 3.6 18:32:16 10° N 18:36:05 67° WNW 18:39:51 10° SSW
NOAA 12 4.2 18:32:25 10° SSE 18:37:35 54° ENE 18:42:45 10° N
Meteor 2-6 Rocket 4.0 18:32:58 10° S 18:38:21 77° E 18:43:52 10° N
Cosmos 1703 Rocket 4.4 18:35:36 10° SSW 18:39:58 53° W 18:44:21 10° N
Chunghua 1 4.4 18:37:40 10° WNW 18:41:22 83° N 18:42:20 47° E
USA 229 DEB 4.5 18:35:53 10° SSE 18:41:23 27° ESE 18:42:33 26° E
Cosmos 1782 3.5 18:38:54 10° SSW 18:42:50 54° W 18:46:47 10° N
ERBS 2.8 18:41:28 10° NW 18:44:49 59° SW 18:47:25 16° SSE
Cosmos 2082 Rocket 2.3 18:44:51 10° N 18:50:23 52° ENE 18:55:41 11° SE
ALOS 2.1 18:47:53 10° SSE 18:52:32 79° ENE 18:57:13 10° N
Meteor 2-20 4.5 18:48:27 10° N 18:54:23 52° E 19:00:14 10° SSE
Cosmos 1464 Rocket 4.1 18:49:22 10° S 18:55:28 75° W 19:01:37 10° N
Okean 2 Rocket 3.0 18:51:07 10° N 18:55:38 68° E 19:00:07 10° SSE
FengYun 1-2 T 4.5 18:51:32 10° SE 18:56:40 42° ENE 19:01:50 10° N
Cosmos 405 Rocket 2.7 18:53:39 10° S 18:57:29 79° W 18:58:57 35° N
Tiangong 1 3.2 18:55:14 10° SSW 18:55:59 16° SSW 18:55:59 16° SSW
Thor Agena Rocket 3.5 18:59:06 41° NE 19:00:39 58° ESE 19:05:43 10° S
BREEZE-M DEB (TANK) 3.1 18:55:40 10° WNW 19:01:08 51° SW 19:02:15 33° SSE
ERS-2 3.9 18:59:14 10° SSW 19:02:34 33° W 19:05:55 10° NW
Meteor 1-27 Rocket 3.7 18:59:14 10° S 19:05:05 83° E 19:11:03 10° N
BREEZE-M R/B 3.8 19:20:40 10° NW 19:22:51 43° NW 19:22:51 43° NW
Cosmos 968 Rocket 3.9 19:31:40 10° SSW 19:36:44 60° WNW 19:37:11 57° NW
CZ-4C R/B 3.5 19:30:22 10° NNW 19:35:39 41° NNE 19:35:39 41° NNE
Meteor 2-20 Rocket 4.3 19:31:26 10° N 19:37:33 86° W 19:43:37 10° S
Cosmos 2369 Rocket 4.1 19:37:43 10° S 19:39:08 18° S 19:39:08 18° S
Meteor 1-11 Rocket 4.3 19:42:27 10° NNW 19:48:10 57° W 19:53:42 10° S
Cosmos 1833 Rocket 3.6 19:42:57 10° NW 19:48:17 45° WSW 19:53:32 10° S
